Погода в Реймерсвале

Нидерланды     51°26′08″N   4°07′40″E
темп.,
°C
ветер,
м/с
пор.,
м/с
влажн.,
%
обл.,
%
осадки,
мм/ч
давл.,
гПа
погр.,
м
19 апреля, пн
пн1923:00+7ссз36846 0.0 1023116
02:00+7ссв348613 0.0 102263
05:00+6ссз348230 0.0 102275
08:00+7с37875 0.0 1021189
11:00+11с2365100 0.0 1021343
14:00+10сз1278100 0.4 102075
17:00+11зсз336940 0.1 1019460
20:00+10сз23786 0.3 101941
20 апреля, вт
вт2023:00+8зсз01865 0.0 101910
02:00+8всв1286100 0.0 101911
05:00+8всв2283100 0.0 101818
08:00+9всв2284100 0.0 101852
11:00+10в117860 0.0 1019276
14:00+13з116463 0.1 1018811
17:00+11сз577397 0.1 1017159
20:00+12с477097 0.1 1017141
21 апреля, ср
ср2123:00+10с357597 0.0 101788
02:00+10с236497 0.0 101750
05:00+9с346899 0.0 101768
08:00+9с3566100 0.0 1018100
11:00+10ссв4661100 0.0 1019231
14:00+11с457098 0.3 1019469
17:00+11с89545 0.3 1020669
20:00+8с7106318 0.3 1021623
22 апреля, чт
чт2223:00+5ссв696774 0.0 1023628
02:00+4ссв4768100 0.0 1023363
05:00+4с246963 0.0 1024125
08:00+5с36699 0.0 1024290
11:00+7с5759100 0.0 10251350
14:00+9ссз785919 0.0 1025987
17:00+9ссз796010 0.0 1025935
20:00+8ссз68745 0.0 1026676
23 апреля, пт
пт2323:00+6ссз48890 0.0 1027358
02:00+5ссв34855 0.0 1027137
05:00+4св23845 0.0 102797
08:00+5св35822 0.0 1028176
11:00+9св34635 0.0 1028530
14:00+11св23575 0.0 1027698
17:00+13св23555 0.0 1026750
20:00+11св46615 0.0 1026115